• In Uzbekistan
  • List of Countries
  • For 7 days
  • Water Temperature
  • Satellite Maps
  • Weather Map
  • Weather Widgets
  • user-avatar
    Login

    Hourly Weather San Juan

    Today, 1 March, Wednesday

    Time Temperature Precipitation Wind Pressure Humidity
    00:00 +29°C° 0 mm 3 mps 701 mmHg 35%
    01:00 +29°C° 0 mm 2 mps 700 mmHg 37%
    02:00 +28°C° 0 mm 2 mps 700 mmHg 37%
    03:00 +28°C° 0 mm 2 mps 700 mmHg 38%
    04:00 +27°C° 0 mm 2 mps 700 mmHg 38%
    05:00 +28°C° 0 mm 2 mps 700 mmHg 36%
    06:00 +29°C° 0 mm 2 mps 701 mmHg 34%
    07:00 +30°C° 0 mm 3 mps 701 mmHg 33%
    08:00 +31°C° 0 mm 3 mps 701 mmHg 32%
    09:00 +33°C° 0 mm 4 mps 701 mmHg 32%
    10:00 +34°C° 0 mm 4 mps 701 mmHg 31%
    11:00 +35°C° 0 mm 3 mps 700 mmHg 29%
    12:00 +36°C° 0 mm 3 mps 700 mmHg 28%
    13:00 +37°C° 0 mm 2 mps 699 mmHg 26%
    14:00 +37°C° 0 mm 2 mps 699 mmHg 25%
    15:00 +37°C° 0 mm 2 mps 698 mmHg 25%
    16:00 +37°C° 0 mm 2 mps 698 mmHg 25%
    17:00 +36°C° 0 mm 2 mps 698 mmHg 29%
    18:00 +34°C° 0 mm 2 mps 698 mmHg 33%
    19:00 +31°C° 0 mm 2 mps 698 mmHg 38%
    20:00 +30°C° 0 mm 2 mps 698 mmHg 42%
    21:00 +29°C° 0 mm 1 mps 699 mmHg 47%
    22:00 +28°C° 0 mm 1 mps 699 mmHg 52%
    23:00 +28°C° 0 mm 1 mps 699 mmHg 52%

    Tomorrow, 2 March, Thursday

    Time Temperature Precipitation Wind Pressure Humidity
    00:00 +28°C° 0 mm 1 mps 698 mmHg 52%
    01:00 +27°C° 0 mm 1 mps 698 mmHg 52%
    02:00 +27°C° 0 mm 1 mps 698 mmHg 49%
    03:00 +27°C° 0 mm 1 mps 698 mmHg 46%
    04:00 +26°C° 0 mm 2 mps 698 mmHg 44%
    05:00 +28°C° 0 mm 2 mps 698 mmHg 40%
    06:00 +29°C° 0 mm 2 mps 699 mmHg 36%
    07:00 +30°C° 0 mm 2 mps 700 mmHg 32%
    08:00 +33°C° 0 mm 3 mps 700 mmHg 30%
    09:00 +34°C° 0 mm 3 mps 700 mmHg 28%
    10:00 +36°C° 0 mm 4 mps 700 mmHg 26%
    11:00 +36°C° 0 mm 5 mps 700 mmHg 26%
    12:00 +36°C° 0 mm 6 mps 700 mmHg 26%
    13:00 +38°C° 0 mm 7 mps 700 mmHg 25%
    14:00 +36°C° 0 mm 7 mps 700 mmHg 28%
    15:00 +35°C° 0 mm 8 mps 699 mmHg 31%
    16:00 +34°C° 0 mm 8 mps 699 mmHg 34%
    17:00 +32°C° 0 mm 8 mps 700 mmHg 40%
    18:00 +31°C° 0 mm 8 mps 701 mmHg 46%
    19:00 +28°C° 0 mm 8 mps 702 mmHg 52%
    20:00 +27°C° 0.1 mm 8 mps 703 mmHg 54%
    21:00 +26°C° 0.1 mm 7 mps 704 mmHg 55%
    22:00 +24°C° 0.1 mm 7 mps 705 mmHg 56%
    23:00 +23°C° 0 mm 7 mps 705 mmHg 55%

    Day after tomorrow, 3 March, Friday

    Time Temperature Precipitation Wind Pressure Humidity
    00:00 +22°C° 0 mm 6 mps 705 mmHg 55%
    01:00 +21°C° 0 mm 6 mps 705 mmHg 54%
    02:00 +21°C° 0 mm 5 mps 705 mmHg 52%
    03:00 +21°C° 0 mm 5 mps 705 mmHg 50%
    04:00 +21°C° 0 mm 5 mps 705 mmHg 48%
    05:00 +21°C° 0 mm 5 mps 706 mmHg 44%
    06:00 +22°C° 0 mm 5 mps 706 mmHg 41%
    07:00 +22°C° 0 mm 5 mps 707 mmHg 37%
    08:00 +25°C° 0 mm 5 mps 706 mmHg 34%
    09:00 +26°C° 0 mm 5 mps 706 mmHg 31%
    10:00 +27°C° 0 mm 4 mps 706 mmHg 28%
    11:00 +28°C° 0 mm 4 mps 705 mmHg 27%
    12:00 +29°C° 0 mm 4 mps 704 mmHg 26%
    13:00 +30°C° 0 mm 3 mps 703 mmHg 25%
    14:00 +30°C° 0 mm 3 mps 703 mmHg 26%
    15:00 +30°C° 0 mm 3 mps 702 mmHg 26%
    16:00 +30°C° 0 mm 3 mps 702 mmHg 26%
    17:00 +29°C° 0 mm 3 mps 702 mmHg 29%
    18:00 +27°C° 0 mm 3 mps 702 mmHg 32%
    19:00 +26°C° 0 mm 3 mps 703 mmHg 35%
    20:00 +25°C° 0 mm 2 mps 703 mmHg 37%
    21:00 +24°C° 0 mm 2 mps 703 mmHg 40%
    22:00 +23°C° 0 mm 1 mps 703 mmHg 42%
    23:00 +23°C° 0 mm 1 mps 703 mmHg 44%

    4 March, Saturday

    Time Temperature Precipitation Wind Pressure Humidity
    00:00 +22°C° 0 mm 1 mps 703 mmHg 45%
    01:00 +22°C° 0 mm 1 mps 702 mmHg 47%
    02:00 +21°C° 0 mm 1 mps 702 mmHg 48%
    03:00 +21°C° 0 mm 1 mps 701 mmHg 49%
    04:00 +20°C° 0 mm 1 mps 701 mmHg 51%
    05:00 +22°C° 0 mm 1 mps 701 mmHg 47%
    06:00 +23°C° 0 mm 1 mps 702 mmHg 44%
    07:00 +24°C° 0 mm 1 mps 702 mmHg 40%
    08:00 +26°C° 0 mm 2 mps 702 mmHg 38%
    09:00 +27°C° 0 mm 2 mps 702 mmHg 36%
    10:00 +29°C° 0 mm 2 mps 702 mmHg 34%
    11:00 +30°C° 0 mm 2 mps 702 mmHg 31%
    12:00 +31°C° 0 mm 2 mps 701 mmHg 29%
    13:00 +32°C° 0 mm 2 mps 701 mmHg 26%
    14:00 +34°C° 0 mm 3 mps 700 mmHg 26%
    15:00 +34°C° 0 mm 3 mps 700 mmHg 25%
    16:00 +34°C° 0 mm 4 mps 700 mmHg 25%
    17:00 +32°C° 0.2 mm 4 mps 700 mmHg 29%
    18:00 +29°C° 0.2 mm 3 mps 701 mmHg 34%
    19:00 +27°C° 0.2 mm 3 mps 701 mmHg 38%
    20:00 +27°C° 0.2 mm 3 mps 701 mmHg 43%
    21:00 +26°C° 0.2 mm 2 mps 701 mmHg 47%
    22:00 +25°C° 0.2 mm 2 mps 702 mmHg 51%
    23:00 +24°C° 0.1 mm 2 mps 701 mmHg 54%

    5 March, Sunday

    Time Temperature Precipitation Wind Pressure Humidity
    00:00 +23°C° 0.1 mm 2 mps 701 mmHg 57%
    01:00 +23°C° 0.1 mm 2 mps 701 mmHg 60%
    02:00 +23°C° 0 mm 2 mps 701 mmHg 61%
    03:00 +21°C° 0 mm 2 mps 701 mmHg 62%
    04:00 +21°C° 0 mm 3 mps 701 mmHg 63%
    05:00 +22°C° 0 mm 3 mps 702 mmHg 63%
    06:00 +22°C° 0 mm 4 mps 703 mmHg 63%
    07:00 +23°C° 0 mm 5 mps 703 mmHg 64%
    08:00 +25°C° 0 mm 5 mps 704 mmHg 59%
    09:00 +27°C° 0 mm 5 mps 704 mmHg 54%
    10:00 +28°C° 0 mm 6 mps 704 mmHg 48%
    11:00 +29°C° 0 mm 6 mps 704 mmHg 46%
    12:00 +30°C° 0 mm 6 mps 703 mmHg 43%
    13:00 +32°C° 0 mm 6 mps 703 mmHg 40%
    14:00 +32°C° 0 mm 6 mps 703 mmHg 40%
    15:00 +32°C° 0 mm 5 mps 702 mmHg 40%
    16:00 +32°C° 0 mm 5 mps 702 mmHg 40%
    17:00 +29°C° 0.1 mm 5 mps 703 mmHg 44%
    18:00 +28°C° 0.1 mm 4 mps 703 mmHg 47%
    19:00 +27°C° 0.1 mm 4 mps 704 mmHg 51%
    20:00 +26°C° 0.1 mm 3 mps 704 mmHg 53%
    21:00 +25°C° 0.1 mm 3 mps 705 mmHg 55%
    22:00 +25°C° 0.1 mm 3 mps 705 mmHg 58%
    23:00 +24°C° 0 mm 3 mps 705 mmHg 61%

    6 March, Monday

    Time Temperature Precipitation Wind Pressure Humidity
    00:00 +23°C° 0 mm 2 mps 705 mmHg 64%
    01:00 +21°C° 0 mm 2 mps 704 mmHg 67%
    02:00 +21°C° 0 mm 2 mps 704 mmHg 68%
    03:00 +21°C° 0 mm 1 mps 704 mmHg 70%
    04:00 +21°C° 0 mm 1 mps 704 mmHg 72%
    05:00 +22°C° 0 mm 1 mps 704 mmHg 67%
    06:00 +23°C° 0 mm 1 mps 705 mmHg 62%
    07:00 +24°C° 0 mm 1 mps 705 mmHg 57%
    08:00 +26°C° 0 mm 1 mps 705 mmHg 52%
    09:00 +27°C° 0 mm 1 mps 705 mmHg 48%
    10:00 +29°C° 0 mm 1 mps 705 mmHg 43%
    11:00 +30°C° 0 mm 2 mps 705 mmHg 39%
    12:00 +31°C° 0 mm 2 mps 704 mmHg 35%
    13:00 +34°C° 0 mm 3 mps 703 mmHg 31%
    14:00 +34°C° 0 mm 3 mps 703 mmHg 31%
    15:00 +34°C° 0 mm 3 mps 703 mmHg 31%
    16:00 +34°C° 0 mm 3 mps 703 mmHg 31%
    17:00 +31°C° 0 mm 3 mps 703 mmHg 38%
    18:00 +29°C° 0 mm 2 mps 704 mmHg 46%
    19:00 +27°C° 0 mm 2 mps 704 mmHg 53%
    20:00 +26°C° 0.1 mm 2 mps 704 mmHg 55%
    21:00 +26°C° 0.1 mm 2 mps 705 mmHg 56%
    22:00 +26°C° 0.1 mm 2 mps 705 mmHg 58%
    23:00 +25°C° 0.1 mm 2 mps 705 mmHg 62%
    Show more